Meadville, PA

12:37 AM EST on December 11, 2019 (GMT -0500)
Port Meadville

Weather History for KGKJ - October, 2019

Change the Weather History Date:

Tuesday, October 1, 2019

  Actual Average Record
Temperature  
Mean Temperature 76 °F -  
Max Temperature 84 °F 67 °F 85 °F (1953)
Min Temperature 68 °F 44 °F 31 °F (1960)
Cooling Degree Days 11    
Growing Degree Days 26 (Base 50)    
Moisture  
Dew Point 65 °F    
Average Humidity 77    
Maximum Humidity 90    
Minimum Humidity 53    
Precipitation  
Precipitation 0.00 in - - ()
Sea Level Pressure  
Sea Level Pressure 30.01 in    
Wind  
Wind Speed 4 mph ()    
Max Wind Speed 13 mph    
Max Gust Speed 21 mph    
Visibility 10.0 miles    
Events      
Averages and records for this station are not official NWS values.
T = Trace of Precipitation, MM = Missing Value Source: Averaged Metar Reports

Daily Weather History Graph

Daily Weather History Graph

Search for Another Location

Airport or City:

Astronomy

Oct. 01, 2019 Rise Set
Actual Time 7:17 AM EDT 7:02 PM EDT
Civil Twilight 6:49 AM EDT 7:30 PM EDT
Nautical Twilight 6:17 AM EDT 8:02 PM EDT
Astronomical Twilight 5:44 AM EDT 8:35 PM EDT
Moon 10:33 AM EDT (10/1) 9:12 PM EDT (10/1)
Length of Visible Light 12h 40m
Length of Day
11h 45m
Waxing Crescent, 12% of the Moon is Illuminated
Oct 1
Waxing Crescent
Oct 5
First Quarter
Oct 13
Full
Oct 21
Last Quarter
Oct 27
New

Hourly Weather History & Observations

Time (EDT) Temp. Heat Index Dew Point Humidity Pressure Visibility Wind Dir Wind Speed Gust Speed Precip Events Conditions
12:53 AM 68.0 °F - 64.9 °F 90% 30.06 in 10.0 mi Calm Calm - N/A   Clear
1:53 AM 69.1 °F - 64.9 °F 87% 30.05 in 10.0 mi Calm Calm - N/A   Clear
2:53 AM 69.1 °F - 64.9 °F 87% 30.06 in 10.0 mi Variable 3.5 mph - N/A   Partly Cloudy
3:53 AM 69.1 °F - 64.9 °F 87% 30.05 in 10.0 mi South 3.5 mph - N/A   Scattered Clouds
4:53 AM 68.0 °F - 64.9 °F 90% 30.05 in 10.0 mi Variable 3.5 mph - N/A   Mostly Cloudy
5:53 AM 68.0 °F - 64.9 °F 90% 30.05 in 10.0 mi South 6.9 mph - N/A   Clear
6:53 AM 68.0 °F - 64.9 °F 90% 30.05 in 10.0 mi South 6.9 mph - N/A   Mostly Cloudy
7:53 AM 68.0 °F - 64.9 °F 90% 30.06 in 10.0 mi South 5.8 mph - N/A   Clear
8:53 AM 70.0 °F - 64.9 °F 84% 30.04 in 10.0 mi South 6.9 mph - N/A   Clear
9:53 AM 73.9 °F - 66.9 °F 79% 30.04 in 10.0 mi SSW 4.6 mph - N/A   Clear
10:53 AM 78.1 °F - 66.9 °F 68% 30.03 in 10.0 mi SW 9.2 mph - N/A   Clear
11:53 AM 82.0 °F 84.5 °F 66.9 °F 60% 30.01 in 10.0 mi SSW 6.9 mph 16.1 mph N/A   Clear
12:53 PM 82.0 °F 83.8 °F 64.9 °F 56% 30.00 in 10.0 mi SW 12.7 mph 20.7 mph N/A   Partly Cloudy
2:53 PM 84.9 °F 87.1 °F 66.0 °F 53% 29.99 in 10.0 mi West 10.4 mph 19.6 mph N/A   Scattered Clouds
3:53 PM 82.0 °F 83.8 °F 64.9 °F 56% 29.98 in 10.0 mi WSW 9.2 mph - N/A   Partly Cloudy
4:53 PM 81.0 °F 83.0 °F 66.0 °F 60% 29.97 in 10.0 mi WSW 6.9 mph - N/A   Mostly Cloudy
5:53 PM 79.0 °F - 66.0 °F 64% 29.99 in 10.0 mi West 6.9 mph - N/A   Scattered Clouds
6:53 PM 75.9 °F - 66.0 °F 71% 29.99 in 10.0 mi West 4.6 mph - N/A   Scattered Clouds
7:53 PM 75.9 °F - 64.9 °F 69% 29.99 in 10.0 mi SW 3.5 mph - N/A   Partly Cloudy
8:53 PM 73.9 °F - 66.0 °F 76% 29.96 in 10.0 mi Calm Calm - N/A   Clear
9:53 PM 72.0 °F - 66.0 °F 81% 29.93 in 10.0 mi SE 3.5 mph - N/A   Clear
10:53 PM 70.0 °F - 64.9 °F 84% 29.94 in 10.0 mi Calm Calm - N/A   Clear
11:53 PM 68.0 °F - 64.9 °F 90% 29.92 in 10.0 mi Calm Calm - N/A   Clear